Location: Azul
(36.7830°S, 59.8500°W)
Time: 09:23:58
(UTC-03:00)

UKube-1 - Pass Details

Date: 31 October 2021
Orbit: 611 x 617 km, 98.4° (Epoch: 07 December)

Event Time Altitude Azimuth Distance (km) Brightness Sun altitude
Exits shadow 21:48:40 18° 319° (NW) 1,521 ? -24.4°
Maximum altitude 21:50:48 26° 277° (W) 1,216 ? -24.7°
Drops below altitude 10° 21:54:29 10° 219° (SW) 2,001 ? -25.2°
Sets 21:56:59 0° 206° (SSW) 2,915 ? -25.6°
